Other Public Products
Issued by NWS Grand Forks, ND

Home | Current Version | Previous Version | Text Only | Print | Product List | Glossary On
Versions: 1 2 3 4 5 6 7 8 9 10 11 12 13 14 15 16 17 18 19 20 21 22 23 24 25 26 27 28 29 30 31 32 33 34 35 36 37 38 39 40 41 42 43 44 45 46 47 48 49 50
000
FPUS83 KFGF 201931
OPUFGF
PRAIRIE TO PINES WEATHER ROUNDUP
NATIONAL WEATHER SERVICE EASTERN NORTH DAKOTA/GRAND FORKS ND
200 PM CDT SUN MAY 20 2018

 **SATELLITE DATA USED TO AUGMENT SKY COVER AT AUTOMATED STATIONS**
 *****  WEATHER ACROSS EASTERN NORTH DAKOTA  *****

CITY           SKY/WX    TMP DP  RH WIND       PRES   REMARKS
GRAND FORKS    FAIR      71  37  28 VRB6      30.21F
GRND FORKS AFB FAIR      73  35  24 SE5       30.21F
GRND FORKS NWS   N/A     72  39  30 SW5       30.18F
BUXTON         NOT AVBL
DEVILS LAKE    FAIR      68  34  28 SW8       30.23F
FARGO          FAIR      69  35  28 CALM      30.23F
WAHPETON ARPT  FAIR      70  21  16 NE13G18   30.22F
$$

 *****  WEATHER ACROSS CENTRAL AND WESTERN NORTH DAKOTA  *****

CITY           SKY/WX    TMP DP  RH WIND       PRES   REMARKS
JAMESTOWN      FAIR      67  39  35 CALM      30.23F
BISMARCK       FAIR      66  36  32 S9        30.23F
MINOT          FAIR      73  28  18 S13G20    30.19F
MINOT AFB      FAIR      72  31  22 SE15      30.18F
GARRISON         N/A     68  30  24 S16       30.21F
WILLISTON      FAIR      69  31  24 SE15G25   30.17F
DICKINSON      FAIR      66  34  30 S17G24    30.18F
HETTINGER      FAIR      62  33  33 S13       30.21F
$$

 *****  OTHER OBSERVATIONS NORTHEAST NORTH DAKOTA  *****

CITY           SKY/WX    TMP DP  RH WIND       PRES   REMARKS
WALHALLA       FAIR      75  32  20 S8        30.17F
LANGDON        FAIR      75  34  22 SW7       30.21F
CAVALIER         N/A     75  32  20 SW8G22    30.17F
GRAFTON        FAIR      72  32  23 W7        30.21F
CANDO          FAIR      72  30  21 S7        30.22F
FORT TOTTEN      N/A     72  34  25 W3        29.95S
ROLLA          FAIR      72  28  20 W7G15     30.20F
RUGBY          NOT AVBL
 ***** THE ABOVE OBSERVATIONS ARE NON NWS ARE NOT QUALITY
        CONTROLLED AND MAY MIS-REPORT RAIN FOR SNOW...
$$

 *****  OTHER OBSERVATIONS SOUTHEAST NORTH DAKOTA *****

CITY           SKY/WX    TMP DP  RH WIND       PRES   REMARKS
COOPERSTOWN    FAIR      70  34  26 CALM      30.23F
VALLEY CITY    FAIR      66  34  30 CALM      30.24F
OAKES            N/A     66  37  34 NE8G16    30.23F
GWINNER          N/A     70  34  26 NE10G16   30.22F
SHEYENNE NWR     N/A     69  36  30 SE7       29.95S
BUFFALO        NOT AVBL
WYNDMERE       NOT AVBL
 ***** THE ABOVE OBSERVATIONS ARE NON NWS ARE NOT QUALITY
       CONTROLLED AND MAY MIS-REPORT RAIN FOR SNOW...
$$

  *****  WEATHER ACROSS NORTHERN MINNESOTA  *****

CITY           SKY/WX    TMP DP  RH WIND       PRES   REMARKS
FLAG ISLAND    FAIR      57  43  58 S18       30.18S
WARROAD        FAIR      70  39  32 SW7       30.21F
ROSEAU         FAIR      70  39  32 SW8       30.21F
HALLOCK        FAIR      73  28  19 SW8       30.19F
THF RVR FALLS  FAIR      68  31  25 S7        30.24F
HALSTAD        NOT AVBL
FOSSTON        FAIR      68  30  24 SW6       30.25F
BAUDETTE       FAIR      70  30  22 W5        30.21F
WASKISH        PTSUNNY   66  28  24 SW7       30.24F
CROOKSTON      FAIR      70  32  24 CALM      30.23F
$$
  *****  WEATHER ACROSS CENTRAL AND WEST MINNESOTA  *****

CITY           SKY/WX    TMP DP  RH WIND       PRES   REMARKS
BEMIDJI        FAIR      67  33  27 S8        30.24F
PARK RAPIDS    FAIR      67  33  28 MISG      30.24F
WADENA         FAIR      66  34  30 E8        30.24S
DETROIT LAKES  FAIR      66  32  28 E6        30.25F
MOORHEAD       FAIR      70  34  26 SE6       30.24F
FERGUS FALLS   FAIR      66  34  30 E7        30.19F
ELBOW LAKE     FAIR      67  35  31 E10G17    30.23F
MORRIS MN      FAIR      68  28  22 NE9G17    30.21F
STAPLES        FAIR      66  28  24 E7        30.24F
WHEATON        FAIR      68  25  19 E7G17     30.23F
$$
  *****  WEATHER ELSEWHERE ACROSS MINNESOTA  *****

CITY           SKY/WX    TMP DP  RH WIND       PRES   REMARKS
DULUTH         FAIR      64  30  27 VRB6      30.26F
INTRNTL FALLS  FAIR      71  32  23 SW8       30.21F
ELY            FAIR      66  23  19 NW6       30.23S
CLOQUET        FAIR      64  25  22 CALM      30.25F
BRAINERD       FAIR      67  32  27 NE10G17   30.25F
HIBBING        FAIR      66  34  30 NE6       30.25F
ALEXANDRIA     FAIR      68  35  29 VRB6      30.24F
SAINT CLOUD    FAIR      67  24  19 E9G22     30.23F
MINNEAPOLIS    FAIR      68  38  33 NE6       30.21F
$$

  *****  WEATHER ACROSS SOUTH DAKOTA  *****

CITY           SKY/WX    TMP DP  RH WIND       PRES   REMARKS
SIOUX FALLS    CLOUDY    57  46  66 E5        30.18F
BROOKINGS      CLOUDY    62  27  26 E13G20    30.18F
WATERTOWN      FAIR      65  36  34 E13G20    30.20F
HURON          FAIR      64  33  31 SE10G18   30.19F
SISSETON         N/A     68  28  22 E7        30.21F
ABERDEEN       FAIR      68  26  20 E10G24    30.22F
MITCHELL       CLOUDY    57  39  51 NE12      30.21F
PIERRE         FAIR      63  38  39 E13       30.20F
MOBRIDGE       FAIR      66  37  34 E10       30.20F
RAPID CITY     FAIR      57  37  47 VRB6      30.20F
$$

  *****  SOME WEATHER IN NEARBY STATES *****

CITY           SKY/WX    TMP DP  RH WIND       PRES   REMARKS
GLASGOW MT     FAIR      70  41  34 SE23G32   30.06F
GREAT FALLS MT FAIR      72  45  37 S9        29.95F
CHEYENNE WY    FAIR      50  41  71 S12G22    30.20F
SCOTTSBLUFF NE FAIR      58  42  55 VRB6      30.19F
OMAHA NE       CLOUDY    57  53  86 N10       30.12F
DES MOINES IA  CLOUDY    66  57  72 E5        30.10F
DAVENPORT IA   CLOUDY    61  51  70 E10       30.18F
CHICAGO IL     CLOUDY    49  44  83 NE12      30.21R
EAU CLAIRE WI  FAIR      68  36  30 NE9       30.21F
LA CROSSE WI   CLOUDY    53  49  86 E6        30.23S
$$

  *****  SOME NATIONAL WEATHER *****

CITY           SKY/WX    TMP DP  RH WIND       PRES   REMARKS
LA GUARDIA NY  PTSUNNY   81  62  52 W10G21    29.92S
RALEIGH NC     PTSUNNY   84  72  67 SW9       30.12F
ATLANTA GA     PTSUNNY   85  69  58 S9        30.12F
NEW ORLEANS LA FAIR      90  70  51 NE7       30.04F HX  95
OKLAHOMA CITY  CLOUDY    69  60  73 N12       30.08S
ALBUQUERQUE NM FAIR      73  39  29 E6        30.12F
SALT LAKE CITY PTSUNNY   78  39  24 NW5       29.90F
LOS ANGELES CA CLOUDY    65  55  70 W13       29.95S
BOISE ID       CLOUDY    62  56  80 NW6       29.88F
SEATTLE WA     CLOUDY    61  52  72 SW6       30.07R
$$

*** WEATHER ACROSS MANITOBA...SASKATCHEWAN AND ONTARIO ***
                ***ONTARIO***

CITY           SKY/WX    TMP DP  RH WIND       PRES   REMARKS
GERALDTON      MOSUNNY   68  34  28 W9G21     30.06S
THUNDER BAY    SUNNY     73  30  20 SW14      30.16S
SIOUX LOOKOUT  MOSUNNY   73  32  21 W13G20    30.12F
TORONTO        PTSUNNY   66  50  55 N12       30.09S
BIG TROUT LK   SUNNY     52  28  40 W12       30.05S
PICKLE LAKE    PTSUNNY   66  34  30 W12G17    30.05R
DRYDEN         SUNNY     72  30  21 W12G23    30.15F
KENORA         MOSUNNY   68  34  28 SW14      30.19S
$$
                *** MANITOBA***

CITY           SKY/WX    TMP DP  RH WIND       PRES   REMARKS
BRANDON        SUNNY     75  32  20 S6        30.15F
DAUPHIN        SUNNY     79  27  14 W8G20     30.11F
ISLAND LAKE    MOSUNNY   57  41  54 SE7       30.08F
PILOT MOUND      N/A     72  23  16 SW7         N/A
THE PAS        SUNNY     75  30  19 W15G24    30.02F
THOMPSON       PTSUNNY   54  37  54 NE8       30.05F
WINNIPEG       MOSUNNY   77  32  19 VRB9G17   30.15F
LYNN LAKE      PTSUNNY   63  41  45 E8        29.97F
CHURCHILL      PTSUNNY   23  18  80 N13       30.12S WCI  11
GILLAM         PTSUNNY   45  30  57 NW7       30.09S
$$
                ***SASKATCHEWAN***

CITY           SKY/WX    TMP DP  RH WIND       PRES   REMARKS
ESTEVAN        SUNNY     72  30  21 S14G29    30.16F
KINDERSLEY     MOSUNNY   72  37  28 S24G35    29.92F
LLOYDMINSTER   MOSUNNY   68  41  37 SE17G26   29.91F
PRINCE ALBERT  SUNNY     73  32  21 SW15G24   30.04F
REGINA         SUNNY     72  27  18 S25G35    30.10F
YORKTON        SUNNY     72  28  20 S8G18     30.13F



USA.gov is the U.S. government's official web portal to all federal, state and local government web resources and services.